This demonstration page uses our WeatherBlox Daily Observations layout. Learn more.

Left ArrowRight Arrow

39.92423, -83.80882

Hourly Observations for March 24, 2021

Temp ( °F °C ) Dew Point ( °F °C ) Humidity (%) Winds ( mph kmh ) Pressure ( in mb ) Visibility ( mi km ) Precip ( " mm )
12:56 am 00:56 Cloudy 59 15 46 7.8 62 62 SSE 16 26 29.87 1011 10 16 N/A
1:56 am 01:56 Cloudy 59 15 47 8.3 64 64 SSE 14 22 29.86 1011 10 16 N/A
2:56 am 02:56 Cloudy with Light Rain 61 16.1 48 8.9 63 63 S 10 17 29.87 1012 10 16 N/A
3:56 am 03:56 Cloudy 56 13.3 52 11.1 87 87 S 10 17 29.87 1012 10 16 N/A
4:56 am 04:56 Cloudy 57 13.9 52 11.1 83 83 S 12 19 29.87 1012 10 16 N/A
5:56 am 05:56 Cloudy 56 13.3 53 11.7 90 90 SSE 12 19 29.88 1012 10 16 N/A
6:56 am 06:56 Mostly Cloudy 55 12.8 53 11.7 93 93 SSE 12 19 29.87 1012 10 16 N/A
7:56 am 07:56 Mostly Cloudy 54 12.2 54 12.2 100 100 SSE 9 15 29.88 1012 10 16 N/A
8:56 am 08:56 Cloudy 55 12.8 54 12.2 96 96 SSE 10 17 29.88 1012 10 16 N/A
9:56 am 09:56 Cloudy 57 13.9 53 11.7 87 87 SSE 12 19 29.88 1012 10 16 N/A
10:56 am 10:56 Cloudy 60 15.6 53 11.7 78 78 SSE 13 20 29.87 1012 10 16 N/A
11:56 am 11:56 Mostly Sunny 65 18.3 53 11.7 66 66 S 16 26 29.84 1011 10 16 N/A
12:56 pm 12:56 Cloudy 67 19.4 53 11.7 61 61 SW 15 24 29.83 1010 10 16 N/A
1:56 pm 13:56 Cloudy 68 20 53 11.7 59 59 S 12 19 29.82 1010 10 16 N/A
2:56 pm 14:56 Partly Cloudy 71 21.7 51 10.6 49 49 SW 22 35 29.79 1009 10 16 N/A
3:56 pm 15:56 Partly Cloudy 72 22.2 50 10 46 46 SSW 21 33 29.78 1009 10 16 N/A
4:56 pm 16:56 Mostly Sunny 72 22.2 48 8.9 43 43 SW 18 30 29.78 1008 10 16 N/A
5:56 pm 17:56 Mostly Cloudy 72 22.2 45 7.2 38 38 SW 21 33 29.78 1009 10 16 N/A
6:56 pm 18:56 Sunny 69 20.6 46 7.8 44 44 SW 17 28 29.80 1009 10 16 N/A
7:56 pm 19:56 Mostly Clear 66 18.9 47 8.3 50 50 WSW 9 15 29.83 1010 10 16 N/A
8:56 pm 20:56 Clear 61 16.1 45 7.2 56 56 SW 6 9 29.86 1011 10 16 N/A
9:56 pm 21:56 Clear 58 14.4 46 7.8 65 65 SW 7 11 29.89 1012 10 16 N/A
10:56 pm 22:56 Mostly Clear 58 14.4 46 7.8 65 65 SW 6 9 29.91 1013 10 16 N/A
11:56 pm 23:56 Clear 58 14.4 46 7.8 65 65 SW 7 11 29.91 1013 10 16 N/A

Powered by AerisWeather